sat.trackr.live / text

‹ back to catalog

DLR-TUBSAT

NORAD 25757 · 1999-029B

PAYLOAD ACTIVE UNKNOWN

§ Identity

Operator
Country
GER
Launch date
1999-05-26
Launch site
SRILR
Launch vehicle
Mass (kg)
RCS (m²)
0.26

Purposes: earth_obs

External: N2YO · Heavens-Above · Gunter

§ Orbital elements

Epoch: 2026-05-24T22:33:00.406656Z

Period
99.14 min
Inclination
98.6691°
Eccentricity
0.0015267
Mean motion
14.52419554 rev/d
Perigee alt
706.9 km
Apogee alt
728.6 km
Semi-major
7,095.9 km
B*
2.9152e-5
RAAN
139.6798°
Arg perigee
63.1593°
Mean anomaly
297.1161°
Rev number
42,987

§ Raw data

DLR-TUBSAT1 25757U 99029B   26144.93958804  .00000070  00000+0  29152-4 0  99972 25757  98.6691 139.6798 0015267  63.1593 297.1161 14.52419554429875

JSON: /api/v1/satellites/25757 · /tle

For live sub-satellite position, see the globe view (requires WebGL).

§ Visibility from observer

Set your observer location to see the next 7 days of passes ≥ 10°. The values pass through the URL so the page stays shareable.

No JS? Fill the form by hand. The geolocation button needs JavaScript.